Regional Weather Roundup
Issued by NWS

Home | Current Version | Previous Version | Text Only | Print | Product List | Glossary Off
Versions: 1 2 3 4 5 6 7 8 9 10 11 12 13 14 15 16 17 18 19 20 21 22 23 24 25 26 27 28 29

000
ASUS45 KGTF 022310
RWRMT
MONTANA HOURLY WEATHER ROUNDUP
NATIONAL WEATHER SERVICE GREAT FALLS MT
500 PM MDT SAT MAY 02 2015

NOTE: "FAIR" INDICATES FEW OR NO CLOUDS BELOW 12000 FEET WITH NO
SIGNIFICANT WEATHER AND/OR OBSTRUCTIONS TO VISIBILITY.

MTZ001>007-043-030000-
WEST OF THE DIVIDE

CITY           SKY/WX    TMP DP  RH WIND       PRES   REMARKS
KALISPELL      CLEAR     68  10  10 W13G25    29.80S
MISSOULA       SUNNY     69  11  10 W12       29.83F
BUTTE          CLOUDY    62  16  16 NW20      29.86R
DEER LODGE       N/A     64  16  15 SW7G20    29.87F
EUREKA           N/A     61  21  21 W5        29.85S
LIBBY            N/A     64  16  15 SW7       29.86S
$$

MTZ008-052>055-030000-
SOUTHWEST MONTANA

CITY           SKY/WX    TMP DP  RH WIND       PRES   REMARKS
BOZEMAN        CLOUDY    67  26  21 NW18G28   29.78S
DILLON         PTSUNNY   72  17  12 W15G25    29.79F
$$

MTZ009-010-012-014-046-048-049-054-030000-
EAST SLOPES AND CENTRAL MONTANA

CITY           SKY/WX    TMP DP  RH WIND       PRES   REMARKS
CUT BANK       MOSUNNY   55  32  41 NE17      29.85R
GREAT FALLS    SUNNY     66  34  30 NE17      29.78R
MALMSTROM AFB  MOSUNNY   64  35  34 NE21G26   29.78R
HELENA         PTSUNNY   73  15  11 NW18G29   29.77S
$$

MTZ011-013-016-021-045-047-050-051-030000-
NORTH CENTRAL MONTANA

CITY           SKY/WX    TMP DP  RH WIND       PRES   REMARKS
HAVRE          MOSUNNY   60  34  37 N13       29.82R
LEWISTOWN      CLOUDY    64  33  31 NW8       29.79R
CHINOOK          N/A     59  34  38 NW10G16   29.82R
FORT BENTON      N/A     61  34  36 N16G24    29.80S
$$

MTZ017>020-022>042-056>058-061-062-030000-
EASTERN PLAINS

CITY           SKY/WX    TMP DP  RH WIND       PRES   REMARKS
BAKER          MOSUNNY   75  29  18 NW12      29.70F
BILLINGS       CLOUDY    75  20  12 NW22G30   29.71F
GLASGOW        SUNNY     69  36  29 N14G23    29.71R
JORDAN           N/A     73  30  20 N17G23    29.69F
LIVINGSTON     PTSUNNY   70  22  16 W24G36    29.75F
MILES CITY     PTSUNNY   79  25  13 W22G30    29.66S
SIDNEY         MOSUNNY   77  30  18 W13G18    29.66S
WOLF POINT     MOSUNNY   75  32  20 NW12      29.67R
BIG TIMBER       N/A     70  25  18 W22G32    29.75F
FORSYTH          N/A     79  27  14 W13       29.67S
PLENTYWOOD       N/A     66  34  30 NW18G24   29.70R
POPLAR           N/A     72  34  25 NW16      29.67R
$$

REGIONAL REPORTS...DAKOTAS

CITY           SKY/WX    TMP DP  RH WIND       PRES   REMARKS
WILLISTON      LGT RAIN  76  30  18 NW10      29.66R
MINOT          MOSUNNY   76  32  20 NW20G29   29.60R
DICKINSON      PTSUNNY   75  26  16 W17       29.66R
BEACH          FAIR      73  23  15 NW18G26   29.70S
CROSBY         FAIR      68  32  26 N15G26    29.69R
WATFORD CITY   FAIR      73  32  21 NW12      29.64R
BISMARCK       MOSUNNY   83  32  16 W21G26    29.60S
GRAND FORKS    CLOUDY    70  47  43 S16G29    29.59F
FARGO          PTSUNNY   83  28  13 S14       29.57F
BUFFALO SD       N/A     78  25  14 W15       29.66S
RAPID CITY     PTSUNNY   80  31  16 N20G28    29.70S
$$

REGIONAL REPORTS...WYOMING/IDAHO/WASHINGTON

CITY           SKY/WX    TMP DP  RH WIND       PRES   REMARKS
GILLETTE       MOSUNNY   74  24  15 VRB3      29.77F
SHERIDAN       MOSUNNY   75  27  17 N6        29.74F
BUFFALO WY     SUNNY     72  21  14 N7        29.80F
CODY           MOSUNNY   73  21  14 W9        29.78S
YELLOWSTONE LA   N/A     60  17  18 VRB7G18   29.95F
IDAHO FALLS    MOSUNNY   77  23  13 W17G30    29.79F
SALMON         MOSUNNY   75  19  12 NW14      29.74S
BOISE          SUNNY     79  27  14 N13G21    29.79F
SPOKANE        MOSUNNY   65  15  14 SW8       29.92F
$$

REGIONAL REPORTS...ALBERTA

CITY           SKY/WX    TMP DP  RH WIND       PRES   REMARKS
EDMONTON       PTSUNNY   50  30  46 NW14      29.84F
CALGARY        MOSUNNY   52  14  22 N12G20    29.90F
LETHBRIDGE     MOSUNNY   48  34  57 N9G22     29.91S
MEDICINE HAT   PTSUNNY   54  27  35 NW14      29.85F
$$

REGIONAL REPORTS...SASKATCHEWAN

CITY           SKY/WX    TMP DP  RH WIND       PRES   REMARKS
SWIFT CURRENT  PTSUNNY   54  28  37 NW24G35   29.77R
REGINA         LGT RAIN  50  43  76 W22G29    29.75R
SASKATOON      PTSUNNY   54  34  47 NW17      29.75R
$$



USA.gov is the U.S. government's official web portal to all federal, state and local government web resources and services.